sat.trackr.live / text

‹ back to catalog

STARLINK-34692

NORAD 65759 · 2025-216AB

PAYLOAD ACTIVE UNKNOWN

§ Identity

Operator
Country
US
Launch date
2025-09-25
Launch site
AFETR
Launch vehicle
Mass (kg)
RCS (m²)

Purposes: comms

External: N2YO · Heavens-Above · Gunter

§ Orbital elements

Epoch: 2026-09-20T22:35:07.698912Z

Period
93.85 min
Inclination
53.1577°
Eccentricity
0.0001101
Mean motion
15.34429377 rev/d
Perigee alt
461.9 km
Apogee alt
463.4 km
Semi-major
6,840.8 km
B*
6.5720e-4
RAAN
143.3980°
Arg perigee
112.6787°
Mean anomaly
247.4333°
Rev number
5,643

§ Raw data

STARLINK-346921 65759U 25216AB  26263.94106133  .00021914  00000+0  65720-3 0  99932 65759  53.1577 143.3980 0001101 112.6787 247.4333 15.34429377 56434

JSON: /api/v1/satellites/65759 · /tle

For live sub-satellite position, see the globe view (requires WebGL).

§ Visibility from observer

Set your observer location to see the next 7 days of passes ≥ 10°. The values pass through the URL so the page stays shareable.

No JS? Fill the form by hand. The geolocation button needs JavaScript.